Location: Marsån
(66.4167°N, 22.2833°E)
Time: 10:26:01
(UTC+00:00)

Resurs 1-3 - Pass Details

Date: 24 February 2024
Orbit: 622 x 625 km, 97.7° (Epoch: 15 April)

Event Time Altitude Azimuth Distance (km) Brightness Sun altitude
Rises 16:57:37 0° 153° (SSE) 2,910 6.7 -10.0°
Reaches altitude 10° 16:59:48 10° 152° (SSE) 2,007 5.9 -10.2°
Maximum altitude 17:04:11 79° 67° (ENE) 648 3.5 -10.7°
Drops below altitude 10° 17:08:35 10° 341° (NNW) 2,020 6.5 -11.1°
Sets 17:10:47 0° 340° (NNW) 2,932 7.3 -11.3°
